Regional Weather Roundup
Issued by NWS

Home | Current Version | Previous Version | Graphics & Text | Print | Product List | Glossary On
Versions: 1 2 3 4 5 6 7 8 9 10 11 12 13 14 15 16 17 18 19 20 21 22 23 24 25 26 27 28 29 30 31 32 33 34 35 36 37 38 39 40 41 42 43 44 45 46 47 48 49 50
000
ASUS43 KOAX 292310
RWRNE

WEATHER ROUNDUP FOR NEBRASKA
NATIONAL WEATHER SERVICE OMAHA NE
600 PM CDT FRI APR 29 2016

NOTES: SATELLITE DATA IS BEING USED TO AUGMENT CLOUD COVER ABOVE
       12000 FEET.
       "FAIR" INDICATES FEW OR NO CLOUDS BELOW 12,000 FEET WITH NO
       SIGNIFICANT WEATHER AND/OR OBSTRUCTIONS TO VISIBILITY.

  * THESE STATIONS DO NOT REPORT WEATHER SUCH AS RAIN...SNOW OR FOG.

NEZ001>004-019>022-054>056-300000-
NEBRASKA PANHANDLE

CITY           SKY/WX    TMP DP  RH WIND       PRES   REMARKS
SCOTTSBLUFF    LGT RAIN  37  36  93 E9        29.96F WCI  31
ALLIANCE       LGT RAIN  38  35  89 NE12      29.93F WCI  30
CHADRON        CLOUDY    41  36  82 E16       29.99S
KIMBALL        SNOW      33  33 100 CALM      29.94S VSB 1/2
SIDNEY         SNOW      33  32  96 NE8       29.93F VSB 1/2 WCI  26
$$

NEZ057>060-069>072-079>082-300000-
SOUTHWEST NEBRASKA

CITY           SKY/WX    TMP DP  RH WIND       PRES   REMARKS
NORTH PLATTE   CLOUDY    41  38  89 NE14      29.92F
IMPERIAL       LGT RAIN  39  37  92 N18       29.89S FOG     WCI  30
LEXINGTON      CLOUDY    43  39  86 NE16      29.90F
MCCOOK         CLOUDY    43  38  82 NE23      29.84F
OGALLALA       LGT RAIN  39  36  87 NE8       29.93F WCI  34
$$

NEZ005>010-023>029-035>040-094-300000-
NORTH CENTRAL NEBRASKA

CITY           SKY/WX    TMP DP  RH WIND       PRES   REMARKS
VALENTINE      CLOUDY    42  36  79 NE16      29.99F
AINSWORTH      CLOUDY    41  37  87 NE14      29.98F
BROKEN BOW     CLOUDY    42  38  85 E15G23    29.92F
O`NEILL        CLOUDY    43  40  89 NE16      30.00F
ORD            CLOUDY    44  38  79 NE18G24   29.92F
THEDFORD       CLOUDY    42  38  84 NE14      29.95F
$$

NEZ041-046>049-061>064-073>077-083>087-300000-
SOUTH CENTRAL NEBRASKA

CITY           SKY/WX    TMP DP  RH WIND       PRES   REMARKS
GRAND ISLAND   CLOUDY    43  40  89 NE21      29.91F
AURORA         CLOUDY    44  41  89 E21G28    29.91F
HASTINGS       CLOUDY    43  39  86 E22G29    29.88F
HEBRON         CLOUDY    47  44  87 NE20G25   29.86F
HOLDREGE       CLOUDY    43  40  88 NE23      29.87S
KEARNEY *      CLOUDY    43  37  81 NE23      29.90F
YORK           CLOUDY    45  41  87 E20G25    29.93F
$$

NEZ011>018-030>034-042>045-300000-
NORTHEAST NEBRASKA

CITY           SKY/WX    TMP DP  RH WIND       PRES   REMARKS
NORFOLK        CLOUDY    44  39  82 E16G26    29.98F
ALBION         CLOUDY    44  39  84 E14       29.97F
BLAIR          CLOUDY    48  43  85 E14       29.98F
COLUMBUS *     CLOUDY    45  36  70 E17       29.97F
FREMONT        CLOUDY    47  42  82 E12G17    29.99F
TEKAMAH        CLOUDY    48  43  82 E15       30.01F
WAYNE          CLOUDY    45  42  89 E13       30.02F
$$

NEZ050>053-065>068-078-088>093-300000-
SOUTHEAST NEBRASKA

CITY           SKY/WX    TMP DP  RH WIND       PRES   REMARKS
LINCOLN        CLOUDY    48  41  76 NE17      29.96F
OMAHA EPPLEY   CLOUDY    49  43  80 E10       30.00F
BEATRICE       CLOUDY    48  44  86 NE15G22   29.88F
FALLS CITY     RAIN      51  48  89 NE15      29.92F FOG
NEBRASKA CITY  LGT RAIN  49  46  90 E15       29.95F
PLATTSMOUTH    CLOUDY    48  45  88 NE12      29.97F
$$

NEZ044-045-051>053-067-300000-
OMAHA AREA

CITY           SKY/WX    TMP DP  RH WIND       PRES   REMARKS
OMAHA EPPLEY   CLOUDY    49  43  80 E10       30.00F
BLAIR          CLOUDY    48  43  85 E14       29.98F
FREMONT        CLOUDY    47  42  82 E12G17    29.99F
MILLARD        CLOUDY    49  43  81 E7        29.98F
OFFUTT AFB     CLOUDY    49  45  85 E14       29.97F
PLATTSMOUTH    CLOUDY    48  45  88 NE12      29.97F
WAHOO          CLOUDY    47  43  85 E14       29.97F
$$



USA.gov is the U.S. government's official web portal to all federal, state and local government web resources and services.